Weather in Kurga

Russia / Chelyabinsk Oblast     55°58′28″N   59°19′08″E
temp.,
°C
wind,
m/s
gust,
m/s
humid.,
%
clouds,
%
prec.,
mm/h
press.,
hPa
HPBL,
m
20 april, tue
tue2023:00−3s11550 0.0 103410
02:00−3wsw01550 0.0 103510
05:00−4wnw11557 0.0 103610
08:000wnw12425 0.0 1035269
11:00+4nw23325 0.0 10341202
14:00+6wnw34325 0.0 10321491
17:00+7wnw45340 0.0 10321446
20:00+3nw22530 0.0 103134
21 april, wed
wed2123:000wnw11590 0.0 103210
02:000wnw11620 0.0 103210
05:00−1w11660 0.0 103310
08:00+3w12540 0.0 1033203
11:00+8nw22410 0.0 1032875
14:00+11nne11350 0.0 10311133
17:00+11sse22335 0.0 10311339
20:00+7ese224946 0.0 103111
22 april, thu
thu2223:00+4ese226155 0.0 103214
02:00+3ese226689 0.0 103212
05:00+2sse1168100 0.0 103410
08:00+4se1260100 0.0 103394
11:00+9s3543100 0.0 1032544
14:00+11s4637100 0.0 10321088
17:00+11s4537100 0.0 10311207
20:00+7sse255572 0.0 103280
23 april, fri
fri2323:00+5sse226456 0.0 103229
02:00+4ssw116596 0.0 103210
05:00+4sse1169100 0.0 103218
08:00+4sse41086100 0.9 1032729
11:00+6ssw3682100 1.0 1031772
14:00+5ssw3691100 0.3 1031647
17:00+9ssw1370100 0.4 10301093
20:00+7ese2282100 0.1 103038
24 april, sat
sat2423:00+6e2286100 0.1 102833
02:00+6ese2487100 0.0 102796
05:00+5ese1296100 0.7 102663
08:00+6se3794100 0.7 1025566
11:00+7sse4880100 1.1 10231005
14:00+8se4976100 0.5 10221142
17:00+6se4888100 1.3 10211089
20:00+6ese4892100 0.9 1020846